Theta_e
328 328 328 327 327 327 326 325 325 325 324 323 322 320 319 318 319 329 333 332 340 339 342 351 349 350 355 351 352 351 349 353 353 354 357 359 361 367 369 362 355 352 352 351 351 351 351 351 350 349 348 348 346 345 346 347 346 346 343 343 350 348 349 353 355 354 354 354 353 350 350 348 346 345 345 345 344 345 347 352 354 353 357 358 358 359
327 326 327 328 327 326 325 325 325 325 325 324 321 318 318 318 321 330 334 332 338 338 337 350 349 350 359 353 350 350 350 351 351 352 358 359 363 366 366 363 360 352 351 352 351 350 351 351 350 349 348 348 347 346 347 347 347 347 345 346 349 349 348 352 356 356 354 354 353 349 349 348 347 346 344 345 344 344 346 351 353 352 355 357 358 360
326 325 327 328 326 324 324 324 324 324 325 323 321 317 314 318 323 327 333 333 335 338 336 348 349 345 354 351 349 351 351 352 350 352 358 360 368 366 360 358 358 356 353 351 350 351 350 351 350 349 350 348 348 348 348 347 347 347 348 346 347 350 349 351 354 355 352 353 351 348 347 345 345 345 344 344 343 343 347 350 351 351 353 357 358 359
321 324 327 327 326 324 324 324 324 324 324 322 321 316 312 320 321 318 326 334 335 337 338 343 346 347 352 348 349 350 348 353 349 350 359 358 363 362 356 354 355 357 359 353 350 351 350 352 352 349 350 348 348 349 348 348 348 349 349 348 348 350 351 351 353 354 351 351 350 347 345 343 343 342 341 343 342 341 345 350 350 349 351 355 357 359
322 325 326 325 326 326 324 324 324 322 321 322 322 317 315 320 322 320 327 333 332 335 340 338 331 338 353 351 349 350 348 350 349 351 358 357 359 360 358 356 353 357 359 356 351 351 350 351 351 350 350 349 348 349 349 349 349 350 351 350 350 350 351 353 354 353 351 350 350 348 344 342 342 342 341 340 343 342 344 351 352 349 348 348 353 358
323 326 326 327 326 326 325 324 325 322 317 318 321 322 320 321 325 326 329 329 322 321 333 336 320 324 346 351 350 349 348 350 349 351 355 358 364 366 363 357 354 355 356 356 354 352 351 351 351 351 351 350 349 349 350 351 350 351 353 352 353 353 352 355 356 354 351 350 350 348 346 345 342 345 345 341 344 344 343 348 352 352 350 344 347 356
323 324 325 326 327 326 325 323 325 325 318 314 320 325 324 324 323 324 324 321 314 315 330 336 321 317 329 342 350 349 348 352 349 351 355 359 363 365 362 357 354 354 352 354 355 352 352 351 351 353 352 351 350 350 351 351 351 352 354 354 355 355 355 356 358 355 352 350 350 349 348 347 344 346 348 345 344 347 345 345 348 352 352 347 346 352
324 325 324 325 326 325 325 322 325 327 318 315 323 326 324 324 322 322 322 317 316 320 327 332 328 318 317 329 350 352 349 352 350 352 358 358 358 360 360 356 353 354 354 354 354 353 352 353 353 352 353 353 351 351 352 352 353 354 354 355 356 356 356 357 358 356 353 351 351 350 349 348 345 345 349 348 346 347 347 345 346 350 352 350 347 350
325 325 324 325 325 324 323 323 325 327 322 320 326 326 324 324 322 322 319 316 318 318 315 322 326 319 315 325 343 354 350 350 349 353 357 357 356 358 358 355 352 353 355 354 352 353 354 353 353 352 354 353 352 352 353 354 355 355 356 356 357 356 356 358 359 356 354 352 353 352 350 350 348 346 349 351 350 348 346 346 345 346 351 352 348 348
326 326 325 324 324 324 324 325 326 325 325 324 324 324 325 324 323 323 319 315 315 314 311 316 320 316 314 321 330 337 341 346 350 350 353 355 355 358 357 355 354 352 354 354 353 353 355 353 352 353 354 355 353 354 354 356 356 356 358 358 359 357 357 358 358 356 354 353 355 353 350 351 350 348 350 352 352 349 345 346 347 346 350 352 349 349
323 325 325 325 324 324 325 325 325 325 325 325 325 325 323 322 322 321 320 315 311 310 311 315 319 318 315 318 325 330 335 344 351 349 349 356 359 360 357 354 352 352 353 352 352 352 354 355 355 353 355 356 356 355 355 356 357 358 359 359 360 359 356 358 358 356 355 355 354 353 351 350 350 349 350 351 351 349 345 346 349 348 348 351 352 352
321 322 325 326 324 325 324 324 324 325 325 325 325 322 317 316 317 315 315 314 310 308 310 314 319 319 314 317 327 335 338 340 347 351 350 351 356 357 356 354 352 353 354 352 354 354 356 361 362 357 356 358 357 355 356 358 358 359 360 361 362 361 358 358 358 357 356 355 354 353 351 349 350 349 348 350 350 350 348 347 350 352 350 349 352 355
318 320 323 325 325 325 324 322 322 324 324 324 322 317 311 310 312 312 312 312 310 309 311 315 316 315 315 321 331 338 337 337 340 349 352 352 354 354 353 353 353 353 352 352 354 356 360 366 364 360 359 359 358 357 357 359 359 360 362 362 363 362 360 358 359 358 356 356 354 353 351 349 350 349 348 349 350 351 351 349 351 354 353 350 350 354
313 317 321 323 324 325 323 320 318 319 322 322 318 313 311 310 311 313 313 312 312 311 311 315 314 311 311 321 333 336 334 338 338 341 347 351 357 356 353 354 353 352 351 351 355 358 362 365 362 360 359 359 358 359 358 358 359 360 362 364 364 364 363 360 362 360 357 357 355 353 352 350 350 350 349 349 349 352 354 352 352 355 355 353 350 351
311 312 317 320 322 323 325 322 320 321 322 322 322 318 313 311 311 312 312 312 312 310 311 313 312 308 309 317 330 332 334 338 336 340 341 343 352 355 353 353 352 350 351 352 355 357 359 359 359 360 359 359 359 359 358 358 360 360 363 365 366 365 364 362 363 362 359 358 357 355 353 352 351 351 352 351 350 351 356 355 354 355 355 356 354 352
311 312 318 322 322 323 324 324 325 323 320 321 324 319 313 314 315 312 312 312 311 310 310 310 311 312 316 323 329 331 334 336 337 338 340 345 352 353 351 352 350 349 350 350 353 358 359 357 358 359 359 359 360 359 358 359 360 362 362 365 366 366 365 364 363 363 361 359 358 357 356 355 353 353 354 355 353 353 356 358 357 356 355 356 357 354
311 314 320 322 322 324 324 324 325 322 319 320 320 315 317 323 320 313 311 313 312 311 312 310 309 314 318 322 327 330 333 334 336 337 336 344 353 352 352 352 350 351 350 351 355 359 359 358 357 358 358 359 360 359 358 360 362 362 363 365 366 366 366 365 364 364 362 360 359 357 356 356 356 356 357 358 357 356 357 359 359 357 355 356 357 357
313 313 318 321 322 323 324 324 325 324 323 319 316 317 323 325 322 317 313 313 313 313 313 311 309 311 310 314 324 330 332 333 334 337 337 340 348 352 352 352 352 349 349 353 357 358 357 357 357 358 358 359 360 359 358 360 361 362 364 365 366 367 367 366 365 365 364 362 360 358 357 357 357 357 358 359 358 358 358 360 360 358 356 355 355 356
313 311 315 320 321 323 324 323 322 324 326 322 319 324 323 317 315 316 314 313 314 313 313 312 311 311 309 313 321 326 329 332 334 337 338 337 345 352 352 352 353 351 352 355 354 353 354 355 357 359 359 358 358 360 361 360 362 362 363 366 367 368 368 366 366 365 364 363 362 360 357 357 357 357 357 358 359 359 360 360 359 358 357 354 354 354
314 312 313 317 320 322 323 321 317 318 323 324 323 325 323 318 316 316 315 314 314 314 314 313 312 311 315 321 325 327 330 331 333 337 339 335 341 351 352 350 351 350 354 354 351 353 353 353 357 357 357 357 358 359 360 360 361 362 364 366 368 369 368 367 367 365 364 363 363 361 359 358 357 357 358 358 359 361 361 361 360 359 357 357 355 353
313 312 311 315 317 317 317 319 319 319 321 321 318 318 319 320 320 318 317 315 314 314 314 314 313 311 320 331 330 330 331 331 333 337 338 338 337 347 351 350 349 350 352 354 354 355 352 352 354 356 358 357 357 360 361 361 361 362 364 367 368 369 368 368 367 366 365 365 363 362 360 359 358 357 359 359 360 362 362 362 360 359 358 357 356 354
314 314 312 313 313 313 316 322 323 322 323 321 319 318 317 319 317 316 317 314 313 313 313 315 313 313 323 333 331 330 330 330 332 333 336 338 337 341 346 348 349 350 351 355 355 352 352 355 356 357 357 357 357 359 360 360 361 362 364 366 368 369 369 368 368 367 366 365 364 363 361 360 359 358 359 360 360 362 363 362 361 359 358 357 358 355
316 316 315 314 314 314 317 320 321 321 321 322 322 322 323 321 316 314 314 315 313 313 313 314 312 316 328 335 332 331 332 330 332 332 334 337 337 338 340 342 346 350 352 354 353 352 352 354 355 357 356 357 356 356 358 359 362 362 363 366 368 370 369 368 368 368 367 365 363 363 362 360 360 360 360 360 361 361 362 362 361 361 359 357 357 357
315 316 316 315 315 316 317 318 320 320 320 320 321 322 323 322 319 318 319 318 315 312 312 314 312 317 328 336 334 332 332 331 331 333 331 333 335 336 340 339 344 349 351 353 351 354 354 352 355 358 358 356 355 356 358 361 364 364 364 367 369 369 370 369 369 368 367 366 364 362 362 361 361 361 360 361 360 361 362 363 362 361 359 357 356 357
313 316 316 316 316 316 315 313 315 318 319 319 321 323 323 323 324 323 321 322 318 314 314 314 311 316 328 338 333 330 331 330 331 331 330 333 333 332 336 336 344 352 351 350 352 354 355 355 357 360 360 358 356 357 362 365 364 364 365 367 367 369 370 369 368 368 367 367 364 363 362 361 362 361 361 360 361 361 362 363 363 362 361 358 356 356
312 314 316 317 318 316 313 311 313 317 320 321 323 324 324 323 323 320 318 318 317 317 318 316 313 318 329 336 332 330 332 331 330 332 329 331 332 333 336 335 343 353 354 352 354 355 354 357 362 365 362 359 357 359 364 366 365 365 365 366 367 368 369 369 369 368 368 366 364 362 362 361 362 362 362 361 361 361 361 362 362 361 361 359 357 356
311 311 313 316 317 317 316 316 319 320 319 319 321 321 322 324 323 321 318 316 318 318 317 320 323 322 326 334 333 331 331 330 331 331 329 332 332 332 342 347 348 353 356 355 357 358 359 362 365 367 366 363 360 361 365 366 365 365 366 366 366 367 369 369 369 368 368 366 364 363 363 363 361 362 362 361 361 361 362 362 361 361 362 360 357 356
310 310 311 312 314 315 316 317 318 318 317 317 318 319 321 323 322 320 318 318 322 320 315 324 332 323 323 337 342 336 333 331 331 330 328 332 331 330 343 349 346 347 352 354 358 360 363 365 368 369 368 366 363 362 362 365 364 365 367 366 366 368 367 368 368 368 367 366 364 363 363 363 361 362 362 361 360 361 362 360 359 361 363 362 359 356
310 310 310 310 311 311 313 313 314 314 315 316 316 317 319 320 319 318 319 320 322 321 318 327 334 326 327 340 343 341 340 335 335 336 333 333 335 335 340 340 339 339 344 351 358 362 364 368 373 372 371 368 364 362 364 364 365 365 366 366 366 366 367 369 368 367 368 366 365 364 364 364 363 362 362 362 360 360 361 360 359 362 363 362 359 356
310 311 311 309 310 311 310 312 312 312 313 313 314 316 316 317 318 318 320 322 322 322 323 328 331 330 332 339 340 341 341 339 337 340 341 342 343 341 340 338 341 343 341 345 352 356 359 366 373 376 376 374 367 364 364 364 365 366 365 366 366 366 367 368 368 367 368 367 366 364 365 365 363 363 362 362 361 360 360 359 359 361 361 362 361 358
310 311 312 310 311 311 310 311 311 311 312 312 313 315 315 316 317 318 320 321 321 322 324 327 327 329 333 338 338 338 339 340 340 342 344 345 345 344 344 344 346 345 345 346 351 356 357 361 370 374 378 376 371 367 365 365 366 365 365 365 365 365 366 367 367 367 367 368 367 367 366 366 364 363 362 362 363 361 360 360 361 359 360 362 362 359
311 311 311 311 311 311 311 311 311 311 312 311 311 313 315 315 317 318 320 322 322 322 323 322 322 327 332 333 336 336 338 341 344 344 346 343 340 340 340 343 346 346 347 348 351 355 354 354 361 367 368 368 367 365 363 365 366 364 364 365 365 365 365 365 368 368 367 369 369 367 367 366 365 364 362 363 364 362 361 362 361 359 359 360 361 360
312 312 311 311 312 312 311 310 310 310 311 310 311 313 314 315 316 317 320 323 323 324 323 321 323 329 332 335 340 342 341 344 346 345 344 343 343 342 340 343 349 350 349 350 350 353 354 355 360 364 365 363 361 360 360 363 365 364 364 365 364 365 365 365 366 367 368 369 369 369 369 367 366 365 364 364 365 363 362 362 361 361 358 360 361 360
313 313 312 311 312 312 312 311 312 312 311 311 313 314 315 316 316 317 320 323 323 324 324 324 327 328 330 336 342 343 342 344 343 341 342 345 347 347 346 349 353 353 352 353 352 352 356 358 360 361 363 365 362 358 356 358 362 363 364 365 365 365 365 365 366 367 369 369 369 369 369 368 368 367 365 365 365 365 364 363 363 362 360 360 362 362
313 313 313 311 311 311 312 312 313 314 313 312 314 315 316 316 315 317 319 320 323 325 324 325 327 325 329 337 341 340 341 341 339 340 341 343 344 345 346 349 351 351 353 354 354 355 358 360 360 360 361 362 363 361 357 356 359 362 363 364 365 365 365 366 367 367 369 369 370 370 370 370 370 368 366 366 366 366 365 364 363 363 362 361 361 363
314 314 315 314 311 311 312 312 314 314 313 312 314 313 313 317 322 326 326 323 321 323 323 325 326 325 330 338 338 337 339 338 338 339 339 337 338 339 341 345 348 349 350 352 353 356 359 358 358 359 360 361 363 364 361 356 354 358 362 364 366 367 366 367 368 369 369 369 371 371 372 371 372 369 368 366 367 367 366 365 365 364 363 361 360 363
313 314 315 315 314 312 312 312 312 313 313 312 312 314 316 321 327 331 331 328 325 326 328 330 333 333 334 337 337 336 337 337 338 340 335 332 333 335 337 340 344 346 348 350 351 354 356 357 357 358 360 362 363 366 364 360 355 355 361 364 365 366 366 367 371 370 369 370 372 372 373 373 372 371 369 368 367 368 368 366 365 364 364 363 361 362
314 314 315 316 315 313 312 312 313 313 313 313 316 320 323 325 327 330 330 329 330 332 332 332 335 336 335 335 335 336 336 337 337 337 333 329 331 333 335 336 339 343 346 348 350 353 354 356 358 360 359 362 361 363 364 364 362 360 360 363 365 367 366 367 370 371 370 371 371 372 373 373 373 373 372 370 369 369 369 367 366 365 365 364 363 364
314 314 315 316 315 314 313 313 313 313 313 319 324 324 323 325 326 328 328 328 330 331 331 331 332 332 332 333 334 336 340 341 339 335 330 328 329 331 333 334 335 339 343 345 348 350 352 355 358 359 360 361 361 362 362 363 365 362 362 364 365 366 366 366 369 371 371 370 370 372 373 373 373 374 373 373 371 371 371 370 367 366 366 364 364 364
315 317 317 315 315 315 314 314 314 312 314 324 326 323 322 323 325 328 330 330 329 328 327 328 330 329 329 332 333 336 339 339 335 331 327 327 329 331 332 333 333 337 341 344 345 347 351 354 357 360 361 361 362 364 363 362 361 361 363 366 364 365 366 365 367 370 371 370 370 372 373 372 373 373 373 374 373 373 373 371 368 367 367 366 364 363
315 317 316 315 315 316 315 315 314 312 316 324 324 323 322 320 320 326 330 329 327 326 325 326 327 327 327 330 331 333 334 332 329 327 326 327 329 330 330 332 333 336 339 341 343 346 349 352 356 359 360 362 363 363 363 362 359 359 363 365 365 364 365 364 365 368 370 370 370 371 372 372 372 372 373 373 373 373 373 372 370 368 368 367 366 363
315 316 316 316 316 316 315 314 313 313 317 321 322 321 322 319 319 324 326 325 324 324 324 323 324 325 325 327 328 329 329 327 326 325 325 326 327 327 328 329 332 334 337 340 342 345 348 352 356 358 360 363 363 364 363 361 358 360 365 367 366 366 365 365 365 367 369 371 371 372 372 372 372 373 372 372 373 374 373 372 371 370 368 368 367 365
315 316 316 316 316 316 315 314 314 315 319 321 320 321 323 323 323 324 323 322 322 322 322 322 322 322 323 324 325 326 326 326 326 325 325 325 326 326 326 328 330 332 335 338 342 345 349 351 354 358 362 363 363 363 361 357 358 362 367 369 366 364 366 366 366 368 371 372 372 373 372 373 373 373 372 372 373 374 373 373 372 370 370 370 367 365
315 315 316 316 316 316 316 316 316 317 319 320 320 322 323 323 322 322 322 322 321 320 320 321 321 321 321 322 323 324 325 326 326 324 324 324 325 325 326 328 329 331 334 337 341 344 347 350 355 360 363 364 362 362 361 357 359 365 370 369 366 365 366 367 367 370 372 373 373 373 373 373 373 373 372 372 373 374 374 373 372 371 371 370 367 367
314 314 315 316 316 316 316 316 317 317 317 317 319 321 321 321 320 320 321 322 321 320 320 320 320 320 319 320 321 323 323 324 324 323 323 323 324 324 326 327 328 330 332 335 339 343 345 349 356 361 365 367 364 365 364 359 361 369 372 369 367 366 367 369 369 371 373 373 373 373 373 373 373 373 372 373 373 373 374 373 372 372 371 370 369 368
313 312 313 314 315 315 315 315 316 317 317 317 317 319 320 320 320 320 320 320 320 320 319 318 319 319 319 319 320 322 322 323 323 322 322 322 323 324 326 327 329 330 332 334 338 342 344 348 354 359 363 367 367 369 369 361 361 372 373 368 368 369 366 368 371 372 373 373 373 372 372 372 372 373 373 373 374 374 374 373 371 371 372 371 370 369
312 311 312 313 314 315 315 316 316 316 316 316 316 317 319 320 319 319 319 319 319 319 318 319 319 318 318 318 319 321 322 322 322 322 322 323 324 324 325 327 327 330 332 333 337 342 343 346 351 356 360 365 367 369 371 367 363 369 372 370 370 368 367 370 372 372 373 373 372 372 371 371 372 372 371 372 373 372 372 371 371 370 371 371 369 368
311 311 311 312 313 313 315 315 314 313 314 316 316 316 318 318 318 318 318 318 318 318 318 319 319 318 318 319 319 320 322 322 322 322 322 324 325 325 325 326 327 330 332 333 336 341 343 343 348 354 357 362 366 368 371 372 367 366 368 369 369 367 368 371 373 372 374 373 372 372 372 370 371 370 370 370 371 371 371 371 371 370 370 370 369 369
311 312 312 311 311 312 314 314 312 312 314 315 314 314 315 316 316 317 317 317 318 318 318 319 319 319 318 319 319 319 321 322 323 322 322 324 326 326 326 326 328 330 331 332 336 340 340 340 345 351 353 357 361 364 368 370 369 368 366 367 366 365 367 371 373 373 373 373 372 371 370 371 371 371 369 370 370 369 369 370 370 370 369 369 368 368
310 311 311 311 311 313 313 312 311 312 314 313 312 313 314 314 315 316 317 317 318 318 318 319 319 320 320 319 319 319 320 322 322 322 322 324 326 327 326 327 328 330 331 332 335 339 339 338 342 347 349 351 353 356 360 362 364 367 369 369 369 368 368 371 373 373 372 373 372 370 370 371 371 370 369 370 368 365 365 364 367 369 369 369 368 368
311 309 310 310 310 311 310 309 310 311 312 311 311 312 313 313 314 316 317 318 318 318 319 319 320 320 320 320 320 320 320 321 323 322 322 324 327 327 326 326 329 330 331 332 335 337 337 337 339 343 346 348 347 348 350 352 353 356 362 365 367 368 370 372 373 374 373 372 371 370 370 371 371 370 370 369 366 362 361 361 361 365 368 368 368 367
Wind_Speed
8 8 9 10 11 14 16 17 17 16 15 17 15 12 12 12 11 12 15 13 15 12 11 14 11 8 4 8 14 14 16 16 14 15 12 11 8 4 1 7 11 16 15 18 24 26 27 27 26 26 27 27 27 27 30 31 29 28 29 27 28 30 27 25 24 22 20 19 18 16 15 15 13 10 8 9 9 9 12 14 11 11 11 11 10 9
10 10 11 13 15 16 16 17 17 17 16 17 15 12 12 11 11 13 15 15 13 11 9 15 15 13 11 12 13 14 16 16 16 16 13 13 9 6 6 5 11 13 14 17 20 24 27 27 27 27 27 28 28 28 30 31 30 29 29 28 27 30 29 26 25 23 22 20 20 18 16 15 14 13 11 9 8 8 13 15 11 11 10 10 11 9
10 11 14 15 16 16 16 16 17 18 16 14 12 11 11 8 10 12 15 17 11 9 7 13 13 12 13 13 12 15 15 14 16 17 14 14 9 6 9 6 11 11 14 18 18 21 26 27 28 27 26 29 28 29 30 30 31 29 30 30 28 29 30 28 26 25 23 21 20 18 16 16 16 15 13 12 10 8 12 15 11 11 11 10 11 10
8 10 15 16 15 16 17 17 17 16 13 12 11 10 9 10 11 8 12 18 12 9 10 13 12 9 9 10 12 15 15 13 16 16 14 13 11 9 10 11 11 10 11 16 17 19 23 25 28 27 26 29 28 29 30 31 31 30 30 31 29 30 30 29 28 27 24 21 20 18 16 15 15 17 16 13 12 10 10 15 12 11 12 10 9 10
12 10 13 16 17 17 17 17 17 13 10 12 14 12 10 12 14 10 8 14 13 12 13 13 9 8 10 11 12 13 12 12 15 15 15 13 12 10 9 12 14 12 11 14 17 18 19 22 25 26 26 28 28 29 31 32 32 30 31 32 31 30 30 29 29 28 26 23 21 19 17 16 13 15 19 15 13 13 11 13 13 11 11 11 10 9
14 13 12 15 17 18 17 15 16 13 9 10 14 15 15 15 15 15 14 11 10 11 14 13 9 6 13 17 15 12 12 13 13 15 17 15 11 9 8 10 13 15 15 14 15 17 18 21 24 26 27 28 29 30 31 32 32 30 31 33 31 31 31 29 29 29 27 26 24 22 19 18 15 12 18 18 15 15 13 12 14 14 12 11 11 10
11 14 14 14 15 18 18 15 15 15 10 9 10 14 17 18 16 16 17 12 8 8 11 14 10 6 10 17 18 15 14 16 16 16 18 15 11 8 7 9 12 15 16 14 14 16 17 20 22 25 28 30 30 30 31 31 32 31 32 34 33 32 31 30 30 30 29 27 26 25 21 20 19 13 15 19 15 14 15 13 13 16 14 12 12 12
9 14 15 15 15 15 14 13 14 15 11 8 9 11 15 18 19 18 16 12 8 9 10 13 13 8 7 11 18 20 17 17 16 16 17 15 14 12 10 13 15 14 14 14 15 17 17 18 22 25 28 30 30 30 31 31 32 33 32 35 35 33 31 30 32 32 31 29 27 27 24 20 21 17 14 18 16 13 15 14 13 15 17 15 13 13
10 14 15 16 15 11 11 12 14 16 13 10 12 13 11 11 15 16 14 11 9 10 10 11 14 9 6 9 13 20 20 19 19 20 20 18 18 17 14 15 17 17 16 15 16 17 16 18 24 28 29 30 30 29 31 31 32 33 33 35 35 34 33 31 33 33 32 31 29 28 26 22 22 20 16 17 17 14 13 14 13 14 16 17 15 13
10 10 12 15 14 10 11 13 14 15 13 10 13 15 10 7 9 10 11 10 10 10 10 12 14 9 6 8 11 15 17 19 20 20 21 22 21 18 15 16 17 17 17 16 16 16 17 22 27 29 29 30 30 29 31 31 31 32 32 35 35 35 34 33 34 35 32 32 31 29 27 24 23 22 19 17 18 17 14 13 14 14 15 17 16 15
14 13 10 11 12 12 12 13 15 16 15 11 12 13 11 8 6 6 7 8 9 10 11 15 16 11 8 8 9 11 13 16 17 16 18 22 23 21 18 18 19 17 16 16 16 16 19 21 23 28 29 29 29 29 31 31 31 32 33 35 36 35 35 34 35 36 34 32 31 30 28 27 25 23 21 19 19 20 18 15 16 16 15 15 16 16
15 15 11 8 11 14 12 12 14 13 12 10 10 10 9 7 5 5 6 7 9 9 10 14 17 14 11 8 7 10 14 17 16 17 21 23 25 24 21 21 20 18 17 16 16 16 16 11 11 19 26 29 29 29 31 32 33 33 34 35 36 35 35 35 36 37 35 33 32 31 30 28 27 25 23 22 20 20 21 19 17 18 17 16 15 15
12 13 13 10 11 14 12 9 10 10 9 11 10 9 9 7 6 6 7 7 9 9 9 13 15 14 11 9 12 14 11 13 13 16 22 24 24 23 22 21 18 18 19 17 16 15 12 8 7 11 16 23 28 30 32 34 33 34 34 35 36 36 36 36 36 37 36 34 33 32 32 30 29 27 25 23 22 21 22 22 20 19 19 19 17 16
8 12 15 14 10 11 13 9 8 9 11 13 11 9 9 8 7 8 8 7 9 9 11 15 14 12 10 10 16 20 12 11 15 16 20 22 25 25 22 22 20 19 19 16 15 13 10 9 9 10 13 18 24 28 32 34 34 33 34 36 37 36 36 36 36 38 37 35 34 33 32 31 30 28 27 25 23 22 22 23 22 21 20 21 21 19
7 8 13 15 11 11 14 12 10 11 11 12 11 10 9 8 7 7 6 7 8 8 12 16 13 10 9 8 13 18 16 12 13 14 17 17 21 25 22 22 21 20 18 16 15 14 12 11 12 13 16 18 22 28 32 33 33 33 34 37 38 36 36 37 36 37 37 36 34 34 33 32 31 29 27 26 25 23 23 23 23 23 21 21 22 21
10 10 6 9 13 15 15 13 13 13 10 9 10 9 10 9 8 7 8 9 9 8 9 11 9 8 7 7 11 15 16 15 13 12 15 17 22 25 22 21 20 18 18 17 17 15 13 14 16 17 17 17 21 28 33 34 33 34 34 37 39 38 37 37 37 37 37 37 35 34 33 32 31 30 28 27 26 24 24 23 24 24 23 21 21 21
8 10 9 10 12 14 16 16 15 14 10 6 10 11 10 11 10 8 10 11 10 9 8 8 9 9 8 9 12 14 16 16 14 14 13 16 24 25 22 21 20 19 18 17 16 15 14 15 18 21 21 21 23 29 35 36 36 36 35 36 38 37 36 37 38 37 36 36 35 35 35 33 32 31 29 27 27 26 24 24 24 24 24 22 21 20
8 10 13 15 13 11 11 15 17 17 15 8 8 10 10 12 11 8 7 8 10 9 6 8 11 10 9 7 10 15 17 17 16 17 16 14 21 23 22 21 20 19 19 19 17 16 16 17 19 23 25 25 28 33 37 36 35 35 34 35 37 38 37 37 36 35 35 36 35 35 36 35 33 32 29 27 28 27 25 25 25 24 24 23 22 20
9 10 12 13 12 11 11 13 15 18 19 16 11 8 8 10 10 8 7 7 9 8 6 10 12 10 9 8 10 16 18 17 18 18 16 11 16 20 21 20 19 18 18 18 18 17 17 17 20 24 26 27 29 32 34 33 34 33 32 34 36 38 38 36 34 34 35 35 34 34 37 36 34 32 30 28 27 28 26 25 25 24 24 25 23 21
8 7 9 12 13 12 10 10 11 12 15 17 16 12 9 8 8 9 8 7 7 8 7 9 10 8 7 7 11 16 18 16 17 16 14 12 12 16 19 18 17 17 16 17 16 16 18 18 21 26 27 28 30 31 33 33 34 34 34 34 35 36 35 35 34 34 35 35 33 34 36 36 34 33 31 29 28 28 27 26 26 26 24 25 25 23
7 6 8 13 14 11 8 7 9 10 11 12 13 12 10 8 7 8 9 9 8 7 7 7 8 7 5 7 9 13 15 15 14 12 11 14 16 17 19 18 17 16 15 17 17 17 18 18 21 26 25 24 25 27 30 32 34 35 34 34 35 36 35 35 35 35 36 36 34 35 36 36 36 34 31 30 29 28 28 27 27 27 26 25 26 25
4 6 8 11 10 9 9 9 9 9 9 9 10 12 12 10 8 8 8 11 10 8 7 7 7 6 5 7 8 9 11 13 14 13 10 13 17 16 17 18 16 16 15 17 18 18 17 16 19 24 24 22 24 26 30 32 33 35 35 34 35 36 36 36 36 35 36 36 35 36 37 36 36 35 32 30 29 28 28 28 28 28 27 26 26 26
7 6 7 9 10 12 16 17 17 17 18 16 11 9 12 12 11 9 7 9 10 10 10 8 8 7 3 4 8 12 11 13 15 15 13 12 14 14 16 19 18 17 17 19 19 19 17 16 18 23 25 27 28 30 33 34 34 35 35 34 34 36 37 36 35 35 35 36 35 36 36 35 34 34 33 31 30 29 29 28 29 29 28 27 26 27
6 5 7 8 10 12 18 21 21 19 16 14 11 10 11 11 11 11 9 9 9 11 11 7 8 8 4 7 2 6 7 10 12 14 15 13 13 13 13 15 16 18 20 21 20 18 16 16 17 18 20 24 26 28 33 34 33 34 34 34 34 35 36 36 34 34 35 35 34 34 35 35 34 34 33 32 31 30 29 28 28 29 29 28 26 27
5 5 6 7 8 8 10 13 14 14 10 8 9 11 11 14 18 16 11 8 9 11 12 10 9 8 2 5 4 2 5 10 9 9 13 13 13 15 14 14 11 14 19 21 20 19 18 17 16 15 16 21 24 27 31 32 32 33 34 34 34 34 34 35 34 34 34 34 34 34 35 36 34 34 35 33 31 31 31 29 28 29 29 28 27 28
5 6 6 7 8 8 8 6 6 7 6 7 11 13 12 16 19 14 9 6 7 10 11 8 7 8 6 2 2 2 7 6 3 4 9 9 9 11 12 11 11 12 15 17 20 21 18 16 15 16 17 22 27 28 29 31 31 32 33 33 33 32 34 35 34 33 34 34 34 36 37 37 36 35 36 34 32 32 31 30 29 29 30 29 28 28
5 6 8 10 10 10 10 9 11 12 10 10 15 17 15 14 17 13 7 7 7 9 11 7 2 6 8 5 5 7 7 4 3 5 3 3 5 6 3 0 3 8 13 14 17 19 17 15 15 17 19 23 28 29 28 30 31 30 31 32 32 32 33 34 34 33 34 34 34 36 38 38 37 36 36 35 33 32 32 31 30 29 30 30 30 29
5 7 11 15 15 16 19 19 18 16 14 15 17 19 17 15 17 15 9 10 11 8 10 9 3 6 8 4 7 3 6 7 6 8 6 4 6 7 1 5 5 5 11 11 14 18 17 15 16 16 17 21 28 28 27 29 31 29 29 31 32 31 32 33 33 33 34 34 34 36 38 39 37 36 36 35 34 32 32 31 31 30 31 31 30 30
6 8 12 15 17 18 20 21 19 16 15 17 18 19 19 17 17 16 14 16 14 8 11 12 6 9 8 7 13 11 5 5 1 5 5 1 5 2 2 5 5 3 7 6 6 9 9 12 17 18 18 20 24 26 26 28 29 28 28 30 31 32 32 33 33 33 33 34 34 35 37 37 36 36 36 36 36 34 32 32 32 31 32 32 31 31
6 8 12 14 16 18 19 19 19 17 16 17 19 20 19 18 18 17 17 19 18 15 18 17 10 10 7 6 10 11 11 10 9 10 12 11 10 10 7 7 10 9 5 4 3 5 4 3 10 13 15 18 20 24 24 24 27 28 28 30 31 31 32 33 34 33 33 33 33 33 35 36 35 35 36 36 37 36 34 33 32 31 31 32 32 31
5 7 11 12 12 15 17 18 18 17 16 17 19 20 20 19 19 18 17 17 16 16 17 16 13 10 4 5 6 7 10 10 11 12 15 15 14 14 11 10 13 12 10 8 8 11 11 5 3 2 5 9 12 18 21 22 25 28 28 29 31 31 31 32 34 33 32 32 31 31 33 35 34 34 36 36 37 37 35 34 33 32 31 32 32 31
6 6 9 9 9 11 14 17 18 17 17 18 19 20 20 19 16 15 15 15 14 15 15 15 14 9 4 2 1 3 7 10 13 14 13 12 12 13 12 10 8 8 10 11 10 11 11 7 4 2 1 4 7 13 17 19 23 26 27 28 30 31 31 30 32 33 32 31 31 31 33 35 34 34 35 36 37 38 36 34 34 33 32 31 33 32
6 7 7 7 8 10 12 16 16 15 15 14 14 16 19 19 17 17 17 16 17 16 13 11 11 7 6 5 3 5 8 10 12 10 9 10 11 12 12 11 10 9 11 11 9 10 11 9 8 7 5 2 6 14 18 19 21 24 26 27 28 29 29 29 30 31 32 32 32 32 33 34 34 34 35 36 37 37 37 35 33 34 33 31 32 32
8 8 7 6 7 9 12 14 14 13 12 9 8 12 16 18 19 19 17 17 18 15 10 9 12 10 8 4 8 8 8 9 9 8 7 9 9 10 12 12 12 10 10 10 10 11 11 10 10 10 11 10 9 11 18 21 21 22 24 25 25 28 29 28 29 31 31 32 33 32 33 34 34 34 34 35 35 35 36 36 33 33 33 31 30 32
9 9 8 6 6 8 10 11 11 10 10 9 10 12 15 17 19 20 20 19 18 16 12 12 16 16 10 2 6 5 6 8 9 8 10 12 11 11 12 12 11 11 10 10 10 10 10 10 10 11 12 12 12 10 13 20 21 21 24 25 26 29 29 27 28 30 31 31 32 32 33 34 34 34 34 34 34 34 35 35 34 32 32 31 30 30
7 7 7 6 7 7 7 9 9 9 10 12 13 14 15 16 11 10 14 17 17 17 14 14 18 17 10 9 8 5 7 8 7 7 13 15 14 13 12 11 11 12 11 11 11 10 10 11 12 14 15 14 14 12 11 18 24 23 23 25 26 28 28 26 26 30 32 31 32 33 33 33 33 33 33 33 33 33 34 35 34 32 31 31 29 28
8 6 5 6 7 7 8 9 9 10 12 13 12 10 9 8 7 8 7 11 12 12 9 9 14 13 10 13 10 7 8 8 5 4 13 16 15 14 13 12 12 13 12 13 14 14 15 16 14 16 17 16 16 16 13 18 25 25 24 25 26 28 29 27 26 30 33 33 33 33 33 33 33 33 33 33 33 33 34 34 34 33 31 30 28 27
8 7 6 6 6 7 8 8 8 10 11 8 6 5 6 7 8 7 6 8 10 15 13 12 14 14 13 13 12 10 9 9 6 1 11 16 15 14 14 13 13 14 14 15 17 18 19 19 18 18 19 18 19 22 23 22 22 23 24 25 26 28 29 28 27 30 33 34 34 34 34 33 33 33 32 33 33 32 32 33 34 33 32 31 28 27
8 7 7 8 8 7 8 8 7 9 8 2 2 4 5 7 9 7 7 6 9 18 17 14 14 14 14 14 14 10 7 7 5 4 11 16 15 14 14 14 14 15 17 17 18 20 21 22 22 21 21 20 21 23 26 27 24 20 23 26 26 27 28 29 30 31 34 35 34 33 33 33 33 33 32 32 33 32 31 33 34 33 32 31 29 27
6 5 6 10 10 8 9 7 6 9 6 1 3 4 4 6 7 5 9 4 10 15 14 13 13 13 13 14 12 9 6 5 5 8 14 16 14 13 14 14 15 15 17 19 19 21 22 23 22 21 21 21 21 22 24 25 24 21 21 26 27 27 29 32 33 32 32 33 33 32 33 34 34 33 32 32 32 32 32 31 32 32 32 31 30 28
6 4 6 9 9 9 10 8 7 9 4 5 6 6 5 3 3 5 6 2 9 12 11 11 11 11 12 13 10 7 8 8 8 11 14 16 16 15 14 16 18 17 18 20 21 22 23 21 21 21 22 23 24 24 23 22 21 20 21 26 27 28 32 34 32 30 30 31 32 33 34 34 34 34 32 32 33 32 32 31 31 32 33 31 30 29
5 4 5 8 7 8 9 8 9 8 1 6 7 5 6 4 5 3 1 4 7 9 9 10 10 10 11 12 10 9 11 13 13 13 14 15 16 16 16 17 19 19 20 22 23 23 22 21 21 23 23 25 27 25 22 20 20 19 19 24 27 30 32 30 28 28 29 31 31 31 33 33 33 33 32 31 33 33 32 31 31 31 32 31 29 30
3 3 4 5 5 6 9 10 10 6 3 9 9 4 4 4 2 1 3 4 5 7 8 7 8 10 10 11 11 11 13 14 14 14 14 15 15 16 17 17 17 18 20 22 24 24 23 22 22 23 24 25 26 24 20 20 21 19 18 23 29 31 28 27 28 28 29 31 30 30 32 32 32 33 32 31 33 33 31 31 31 30 31 31 29 29
1 2 4 4 2 3 6 6 4 3 5 11 9 3 2 3 2 1 2 3 3 5 6 6 7 9 11 11 11 11 11 12 13 14 14 14 15 16 17 17 18 19 20 22 24 24 24 23 22 24 27 26 24 22 19 18 19 17 18 23 28 29 26 26 28 28 28 30 31 30 31 31 31 33 32 32 33 33 31 31 31 29 31 31 29 28
2 3 6 5 3 5 7 6 6 5 6 9 9 4 2 4 3 1 1 3 3 3 4 5 6 8 11 13 13 11 9 10 12 12 13 13 14 15 16 18 19 20 21 23 24 24 24 24 22 24 27 22 17 19 19 18 18 15 18 23 25 28 27 25 27 28 28 29 30 30 30 30 31 32 31 31 32 32 31 31 30 28 29 30 28 27
6 7 7 6 7 7 8 8 7 6 5 7 10 7 0 4 3 0 1 3 4 4 4 5 6 7 9 12 13 11 8 10 11 11 11 12 13 14 15 17 19 21 22 22 23 23 23 23 21 21 23 19 16 20 17 17 17 13 16 23 25 27 27 26 26 28 28 28 29 30 31 30 30 31 31 30 31 31 30 30 29 28 27 28 27 26
5 7 6 7 8 8 6 2 5 10 11 9 9 8 5 2 2 2 3 3 4 6 7 5 5 7 9 11 12 12 10 10 9 9 9 10 11 13 14 15 18 22 22 22 23 23 22 21 18 18 20 19 17 20 18 11 12 13 15 20 23 26 26 25 26 27 28 28 28 29 31 31 31 32 31 30 30 30 29 28 28 27 27 27 26 25
4 7 8 8 8 9 8 5 11 14 12 6 5 7 6 5 6 6 5 5 6 8 9 6 5 6 8 10 11 13 13 10 7 8 9 8 9 11 12 13 18 21 22 25 24 21 19 20 18 16 17 17 16 17 19 16 6 9 16 18 21 24 23 23 26 27 27 28 28 29 30 31 31 32 32 30 31 30 29 29 29 27 27 28 28 26
6 8 8 8 9 9 8 7 14 14 9 5 8 10 9 9 10 9 8 8 8 9 10 8 7 6 7 10 11 12 13 11 7 7 8 7 8 9 11 15 19 21 23 25 23 19 20 20 18 16 16 17 17 17 17 18 16 5 8 14 19 22 22 22 25 28 28 28 28 29 30 30 31 32 31 30 30 29 28 29 30 27 26 28 29 28
5 6 6 6 7 7 6 9 12 10 7 8 12 14 13 12 12 11 10 10 9 9 10 10 8 7 7 10 12 11 11 11 9 7 7 7 8 10 13 17 19 20 23 24 20 19 22 22 19 17 16 16 18 19 17 18 20 16 8 4 9 15 19 22 25 26 28 29 29 30 30 30 30 32 32 30 29 28 24 23 25 26 26 28 30 30
2 4 6 6 6 7 10 12 11 9 9 11 13 13 13 12 12 11 11 11 10 10 10 10 10 8 7 9 12 11 9 10 11 8 6 6 9 13 16 18 17 18 23 24 19 18 22 23 21 18 17 17 18 20 20 20 21 21 18 12 6 7 12 20 26 25 26 27 28 30 31 30 30 32 31 28 30 31 27 22 20 20 23 27 30 29
Wind_Direction
211 220 213 221 225 220 222 224 235 244 247 261 263 252 240 232 241 233 245 233 177 187 193 170 191 192 202 219 179 174 184 176 175 182 179 175 179 136 125 260 208 182 185 186 185 184 180 180 181 177 176 177 173 171 169 169 175 172 170 172 164 166 171 165 167 169 168 169 171 173 169 166 175 182 174 161 160 161 154 153 155 153 156 164 168 170
207 231 223 221 230 229 231 228 235 249 250 259 266 267 258 241 245 234 243 244 185 186 203 167 183 188 180 214 197 180 189 179 180 189 171 159 167 141 131 265 249 196 180 186 186 185 183 179 180 180 177 179 175 171 170 171 176 175 173 175 168 167 172 171 171 173 172 173 174 175 174 170 173 175 174 174 175 164 153 157 161 156 160 170 169 174
204 229 234 226 231 232 238 236 232 242 248 255 258 263 268 256 253 236 239 251 201 175 204 164 175 195 186 205 202 191 191 182 190 190 164 151 154 148 150 199 253 226 188 184 186 188 185 180 180 181 179 181 178 173 173 174 177 177 175 177 174 170 173 175 175 177 176 176 177 177 180 177 171 172 177 178 180 180 159 161 171 159 164 177 171 178
216 221 230 232 235 230 235 240 237 238 239 249 252 250 257 257 264 241 223 244 228 186 198 182 178 188 191 214 214 203 195 187 196 182 152 151 158 166 178 195 219 227 204 187 185 189 187 182 182 181 181 183 179 174 177 177 178 179 176 177 177 174 175 177 178 181 178 178 180 179 183 187 179 171 177 180 178 188 169 161 173 171 172 182 174 182
238 226 219 226 235 235 233 234 237 241 233 233 241 246 250 248 260 273 249 243 238 209 195 195 201 179 175 201 210 209 203 198 199 178 155 156 161 164 185 204 202 201 208 199 189 189 188 186 184 181 181 183 182 180 179 180 181 181 178 178 179 177 177 178 180 182 179 177 179 181 184 196 203 175 169 180 178 184 182 165 170 179 186 187 180 189
244 238 221 218 224 232 237 234 229 235 243 234 230 235 250 256 257 271 276 264 250 223 193 193 223 199 172 188 201 202 200 204 204 187 171 156 154 165 176 198 203 195 198 200 194 192 189 187 184 181 183 186 186 184 181 181 183 181 179 179 179 179 179 179 180 181 180 179 177 180 182 189 209 188 166 178 180 179 187 180 174 178 188 191 183 191
242 241 235 228 223 224 231 237 231 229 240 244 231 223 236 255 262 266 273 272 264 248 211 196 214 229 186 187 191 185 193 204 197 187 180 160 153 172 178 194 206 198 192 192 195 199 194 187 186 184 186 190 190 186 183 182 183 182 179 179 180 180 180 179 181 180 180 180 178 180 182 183 197 197 170 176 183 179 183 189 185 176 181 189 184 190
233 237 238 235 230 226 226 230 229 229 236 242 248 234 223 234 248 256 266 271 273 279 257 210 202 221 224 203 185 173 185 202 192 185 183 170 163 171 187 200 198 195 197 194 191 199 198 187 187 189 188 191 192 186 184 184 184 184 181 180 181 181 182 181 181 181 180 180 179 181 183 183 190 195 179 176 186 188 183 187 189 178 178 187 184 187
233 228 232 235 234 232 231 230 223 228 238 238 247 255 243 233 239 244 252 262 269 275 270 231 213 216 226 225 194 173 178 190 194 193 185 176 171 171 189 202 192 189 198 200 192 193 198 192 190 192 190 192 193 187 185 186 185 184 182 180 182 183 183 183 182 182 182 181 181 182 184 184 187 192 187 181 188 195 193 188 190 186 181 183 184 184
253 232 226 233 238 235 233 238 229 225 236 237 245 260 268 258 249 246 243 251 261 260 260 248 237 235 229 221 202 185 184 187 193 196 185 176 173 174 188 200 194 188 192 199 195 189 195 198 196 194 192 192 193 190 187 187 185 183 182 180 183 185 184 184 183 183 184 183 183 183 184 185 185 188 188 186 190 195 200 193 190 194 184 179 182 185
276 274 251 229 237 243 233 237 236 229 232 233 235 250 257 245 243 259 248 241 250 247 248 253 250 250 248 226 203 201 201 189 185 187 182 174 171 175 186 194 193 187 189 195 193 194 196 196 196 196 195 192 193 193 188 188 187 184 184 183 183 186 185 185 184 184 185 185 186 185 186 187 186 187 187 187 191 193 199 198 191 195 190 180 182 187
269 277 271 234 231 245 238 233 239 233 230 234 229 233 244 235 221 248 251 236 242 241 235 245 252 253 250 242 229 219 201 189 183 177 179 179 175 178 184 187 186 184 189 191 191 197 192 177 177 188 191 190 192 195 190 189 189 185 185 184 184 186 187 186 185 185 186 186 188 189 189 190 188 189 190 190 192 192 195 199 194 194 196 191 188 189
247 253 259 246 224 234 239 226 231 231 218 227 233 227 229 226 209 220 227 224 235 242 234 236 243 246 249 254 260 254 211 189 199 184 178 181 176 176 181 180 182 186 187 188 189 192 180 160 161 172 184 189 191 195 193 190 190 187 185 185 185 187 187 186 185 185 186 187 189 190 191 192 191 192 194 195 195 194 194 197 196 195 196 196 195 195
230 224 237 249 233 220 231 226 217 220 210 213 222 220 221 222 216 216 218 227 237 237 230 230 235 241 245 242 250 261 250 207 214 198 184 184 172 169 179 180 183 187 185 186 187 181 165 165 174 172 182 193 197 198 195 192 191 188 186 186 186 188 187 186 185 185 187 188 189 191 192 192 192 193 195 197 197 196 196 196 197 197 196 197 200 200
266 234 212 224 227 211 219 230 232 228 215 211 217 221 223 224 229 228 217 220 233 236 223 220 225 232 236 224 229 250 253 233 225 201 186 182 163 161 174 181 183 185 183 186 184 176 170 170 175 178 184 194 203 204 199 195 192 187 186 186 186 187 187 186 186 186 187 189 189 190 191 192 193 194 195 197 198 197 197 197 198 199 197 198 202 203
290 277 219 211 234 225 211 217 238 246 233 201 205 222 225 222 232 247 252 248 245 243 225 215 220 227 237 238 225 233 240 241 246 225 190 165 153 159 171 179 184 186 186 186 180 175 173 171 176 183 188 194 202 207 204 197 192 188 186 186 187 188 187 187 187 187 188 189 189 189 190 191 192 193 193 195 197 197 198 198 199 200 198 198 200 203
298 287 320 331 287 247 215 202 214 239 248 202 200 218 226 230 236 242 257 270 268 254 233 221 222 217 223 237 226 221 228 229 237 245 223 174 158 163 170 177 184 186 185 183 179 177 173 173 180 185 188 193 200 208 207 198 192 190 186 185 187 187 188 188 187 187 188 187 188 189 190 190 190 190 191 193 195 196 199 200 200 201 200 200 199 200
327 301 306 317 302 277 244 213 203 220 242 244 214 204 212 231 241 248 254 256 257 255 244 235 232 217 207 216 217 216 221 219 216 234 238 192 163 165 169 172 180 183 180 178 180 180 175 178 184 185 187 190 198 208 208 199 192 190 187 185 186 186 188 189 186 185 187 186 187 188 189 190 190 190 191 193 195 195 198 200 200 201 201 201 200 199
330 306 294 298 294 299 283 237 209 211 228 247 254 227 214 225 223 228 245 244 244 251 246 242 242 231 214 202 202 210 216 213 206 218 228 196 158 159 164 168 176 178 174 177 184 181 178 182 183 183 186 191 200 209 208 200 193 191 189 186 186 187 188 187 185 185 186 186 186 187 189 190 190 191 191 192 194 194 196 199 199 200 201 201 201 200
319 298 291 294 292 311 310 258 223 207 216 238 256 256 248 251 235 221 224 235 246 251 250 245 241 242 237 213 199 203 210 211 204 209 215 201 172 158 160 168 177 179 175 177 183 180 178 183 183 183 186 190 198 207 208 202 197 193 191 188 188 188 187 186 186 186 186 186 185 186 188 190 190 190 191 191 192 193 196 198 198 199 199 199 200 200
291 279 282 286 292 308 306 264 233 216 208 216 235 251 250 249 260 251 228 219 231 248 253 250 241 233 240 239 215 197 197 201 205 214 208 197 192 173 164 172 179 184 183 175 175 180 180 181 182 183 185 186 189 202 209 205 200 195 192 190 190 189 188 188 187 187 186 186 186 186 186 188 188 189 190 191 192 194 196 198 198 197 198 197 197 198
301 280 281 282 286 284 269 269 268 268 278 256 230 236 241 233 241 255 239 217 218 235 245 261 264 238 225 238 218 184 185 191 199 219 220 201 201 190 176 177 180 183 179 166 168 180 183 180 178 178 182 183 184 194 206 207 202 198 194 192 190 190 190 190 189 187 186 186 187 186 186 186 187 188 188 190 191 194 196 198 198 197 197 197 196 197
356 299 283 278 274 280 285 294 298 300 306 295 270 251 246 233 224 229 240 229 217 220 230 251 266 255 305 293 205 176 183 190 188 203 217 213 211 206 191 185 184 179 171 168 173 180 182 183 180 176 180 187 189 191 199 204 203 198 196 193 190 192 192 191 190 188 186 187 188 186 185 185 185 187 187 188 191 194 196 196 197 197 196 196 195 196
353 277 269 278 276 284 287 289 290 288 288 291 295 286 263 256 251 237 237 249 235 220 217 227 249 251 340 347 279 153 170 189 180 190 208 213 215 218 213 204 192 175 171 177 177 175 179 183 179 175 180 189 192 192 195 199 200 197 195 194 193 194 193 190 190 188 186 187 187 184 184 184 184 185 187 189 191 193 195 194 195 196 196 196 195 195
337 274 274 275 266 270 265 263 270 270 271 284 288 275 266 281 278 249 231 262 261 238 226 218 227 236 286 357 1 49 212 202 170 177 204 212 210 208 215 228 211 172 173 180 170 167 177 179 177 177 181 188 194 194 193 194 197 196 195 195 194 194 193 191 190 189 186 186 185 183 184 184 185 186 187 190 192 193 194 193 193 194 194 196 196 195
297 289 295 275 256 249 236 237 269 280 294 302 301 302 292 289 287 265 240 264 265 256 256 239 220 232 237 211 156 232 248 228 147 177 206 208 216 207 199 222 223 181 173 174 162 163 176 179 177 178 179 189 195 194 189 189 195 197 195 195 194 193 193 193 191 189 186 186 186 184 184 185 186 187 189 190 192 193 194 193 193 193 193 195 196 195
285 280 278 273 270 270 274 296 312 314 315 302 304 310 296 294 319 318 279 261 266 264 260 246 213 260 254 214 182 214 229 239 310 303 260 202 232 234 183 206 252 175 162 162 156 161 174 180 180 178 178 188 194 192 188 187 194 197 194 194 194 192 193 193 192 189 187 188 189 186 185 186 187 188 189 190 192 193 193 194 194 193 193 195 196 196
278 268 263 264 266 270 277 287 294 297 298 290 293 297 288 297 323 322 302 296 306 301 264 241 209 265 275 34 37 291 203 186 226 258 264 222 205 225 224 42 28 136 151 155 158 163 173 179 179 179 181 186 189 190 188 188 193 195 192 193 195 192 191 192 192 190 187 189 191 188 187 188 188 188 189 190 193 194 194 196 196 194 194 194 196 197
260 261 260 262 262 264 270 277 282 283 284 283 284 285 286 295 302 299 298 295 296 300 276 263 240 246 257 58 40 0 20 83 351 296 301 188 128 86 60 88 57 81 139 142 142 149 162 173 175 179 184 185 186 186 187 187 189 192 192 192 195 194 191 190 191 190 188 190 193 191 188 189 189 189 189 190 192 195 196 197 197 195 194 195 197 198
258 265 264 263 266 267 267 272 277 278 278 279 280 280 282 289 290 289 291 289 289 288 276 271 263 250 244 87 54 7 16 33 13 10 23 37 49 33 36 72 46 37 81 98 57 49 34 156 170 175 179 179 181 183 185 186 186 190 193 192 195 196 192 187 188 190 190 191 194 192 189 189 190 190 190 190 192 195 197 197 198 197 195 195 198 200
246 271 276 273 273 271 269 271 273 274 276 274 275 278 279 279 278 278 280 281 283 281 275 274 268 250 225 85 55 9 8 14 11 26 37 34 27 15 12 28 30 34 50 48 39 31 14 16 99 134 173 168 174 182 184 184 185 191 195 193 194 197 194 188 187 189 189 190 192 192 189 190 192 191 191 191 192 194 196 196 197 198 196 195 197 201
231 257 275 274 273 271 269 268 266 268 271 268 265 268 270 270 270 270 273 274 273 272 269 264 257 249 261 287 264 335 348 9 21 28 29 19 10 1 352 357 14 29 33 24 30 34 15 12 54 32 205 160 188 202 196 188 186 191 196 195 194 196 196 191 187 186 187 188 190 191 190 190 192 193 193 192 192 194 195 195 196 198 198 195 195 199
243 253 260 258 265 271 270 270 270 265 260 258 256 256 259 263 264 263 265 269 271 270 266 257 248 250 287 315 21 7 353 21 31 22 6 352 350 346 341 354 13 18 14 4 4 21 13 4 8 355 338 312 242 230 218 207 197 194 197 197 194 194 196 194 188 185 186 186 188 190 190 190 192 195 195 194 193 194 194 195 196 196 197 195 194 196
252 253 255 252 260 271 274 277 278 264 249 252 261 258 257 256 254 256 260 264 267 265 266 284 287 282 287 350 48 23 2 22 16 354 3 10 7 1 356 11 25 14 5 1 354 360 0 349 341 335 331 328 303 253 231 225 212 198 197 197 192 192 198 196 189 185 185 184 186 189 189 190 192 195 196 196 194 193 194 197 197 197 197 196 194 194
267 259 255 248 250 265 273 273 268 254 251 271 285 281 276 264 253 254 256 256 262 262 260 274 279 277 282 337 76 44 3 5 351 353 28 35 28 17 5 10 17 4 358 359 349 344 344 336 327 323 321 322 316 288 249 240 229 204 195 196 192 192 198 198 188 183 184 185 186 188 188 190 192 195 197 196 195 194 194 197 198 197 196 196 195 194
272 274 272 261 247 250 256 253 254 259 266 273 275 278 281 278 281 288 271 257 257 257 255 268 271 271 302 4 39 34 356 345 340 20 44 36 22 15 6 359 358 356 352 346 337 333 331 327 321 315 310 306 299 288 257 242 237 219 198 195 193 191 196 198 188 182 183 185 187 188 188 189 191 194 196 196 195 195 194 196 198 198 196 196 197 197
256 260 274 271 255 247 247 246 254 269 269 263 264 275 293 308 356 12 309 280 289 288 289 312 307 306 349 11 6 349 337 320 299 41 42 27 13 6 1 353 351 351 347 338 330 325 321 317 311 305 304 303 296 289 271 244 236 224 203 194 194 191 193 196 191 184 185 187 188 188 188 188 189 192 195 196 195 195 195 195 196 197 196 195 197 198
265 253 249 256 255 253 255 254 255 260 257 252 270 317 354 0 6 359 293 281 333 349 353 360 354 352 2 2 351 343 329 298 266 27 27 12 4 1 355 352 350 346 342 338 329 321 317 314 314 313 309 304 297 291 284 272 253 227 202 193 193 190 191 196 195 188 187 188 189 189 188 188 190 191 193 195 196 195 194 194 195 196 196 195 197 198
274 268 258 250 246 246 251 252 252 254 251 235 350 340 359 7 2 341 274 263 359 3 358 1 5 3 358 351 348 346 323 292 284 356 5 356 355 357 351 348 347 341 337 333 325 317 316 316 314 311 301 290 282 275 273 274 267 240 204 190 190 190 191 198 199 192 189 189 189 189 189 189 191 191 192 193 194 194 194 193 193 194 195 196 198 199
268 262 252 247 245 241 242 242 250 259 264 38 26 336 353 16 2 297 241 257 358 356 354 359 0 359 353 345 343 347 347 341 339 343 345 345 349 355 352 345 341 337 332 328 322 316 314 310 304 299 293 286 280 273 265 260 260 249 213 190 188 193 196 201 201 196 191 188 187 188 190 191 192 192 192 192 191 193 194 193 191 191 193 195 198 201
280 254 235 243 248 242 237 236 246 254 275 10 356 339 354 1 312 253 231 319 355 346 352 0 356 356 353 346 346 350 347 347 341 335 341 345 346 350 351 344 338 336 331 325 321 316 309 303 298 296 294 292 287 280 267 252 250 247 217 190 188 196 200 201 201 196 190 187 188 189 191 193 194 192 192 192 192 193 195 193 191 190 191 194 197 200
302 293 254 245 252 248 237 239 246 239 267 358 324 330 358 315 256 244 359 13 355 347 355 358 358 2 355 346 345 340 332 332 332 336 347 351 346 345 347 344 340 338 333 326 321 315 309 305 303 298 293 290 284 274 260 246 246 243 216 190 190 198 199 197 197 194 189 186 188 191 192 194 194 192 193 193 192 193 195 194 193 191 190 193 196 198
320 315 287 261 263 256 236 234 242 237 6 349 312 296 6 340 282 3 15 8 360 357 357 352 357 2 352 341 339 334 329 327 327 336 348 351 347 344 343 342 339 334 330 326 321 318 315 310 304 298 293 288 279 269 253 236 238 238 214 194 195 196 193 191 192 192 187 186 189 192 193 193 192 192 194 194 192 192 193 192 192 191 190 193 196 196
332 314 299 296 321 284 245 235 251 270 333 336 321 300 72 61 90 74 327 329 344 356 354 345 345 347 340 333 327 324 325 325 327 339 347 346 344 343 339 339 336 331 329 325 321 320 319 312 304 302 298 284 271 270 260 235 231 231 209 196 195 190 185 187 189 188 186 186 190 193 193 193 193 193 196 195 191 191 191 191 192 192 191 193 196 196
326 328 308 292 289 287 273 277 299 306 314 320 317 321 100 113 119 153 281 306 311 320 333 326 323 329 329 323 318 318 324 324 326 339 346 341 338 337 335 333 330 327 327 324 320 320 320 313 309 310 307 295 286 294 280 240 230 229 206 193 188 182 180 183 185 186 186 187 190 193 194 195 194 193 196 195 189 189 191 190 191 191 191 192 194 195
317 335 329 295 287 294 281 271 289 319 334 312 299 300 313 128 121 77 285 298 304 302 302 302 305 313 317 313 312 313 315 317 326 340 344 336 332 331 330 330 328 325 324 320 319 321 322 317 313 320 322 320 325 326 302 243 224 221 199 187 181 178 180 183 184 186 187 188 191 194 195 195 194 193 195 193 188 188 191 190 190 191 191 191 194 196
342 359 340 300 300 308 295 302 353 337 319 303 302 315 331 31 49 346 302 302 305 297 292 285 285 296 301 303 307 310 310 314 331 345 341 331 330 331 330 330 327 324 322 319 317 320 323 320 319 328 333 331 334 340 331 285 229 202 180 175 176 177 181 184 185 186 187 189 192 195 195 196 194 193 194 192 188 189 191 191 191 191 189 190 194 196
342 346 329 311 310 298 282 322 358 335 308 306 354 353 343 344 344 334 314 304 295 291 289 279 262 274 289 298 306 312 313 319 343 350 338 332 331 330 329 328 324 323 323 322 320 325 331 325 322 332 341 340 342 349 351 346 310 204 182 175 177 182 187 189 187 186 188 191 193 195 196 196 193 192 193 192 189 190 192 191 191 191 190 191 193 194
304 310 318 320 311 287 276 331 353 338 315 333 354 345 338 336 332 326 316 305 292 284 283 277 262 260 279 294 301 306 311 319 339 346 336 334 332 327 326 325 323 324 326 322 321 334 341 330 325 339 349 348 351 355 358 3 6 352 201 193 192 194 199 197 190 187 188 192 195 197 197 193 191 190 190 189 186 187 190 191 190 189 190 193 195 196
313 307 321 323 305 295 315 342 342 328 308 314 325 327 329 326 319 311 306 303 296 287 283 279 271 258 263 280 287 295 305 312 321 337 344 338 330 326 324 324 324 327 328 324 326 343 346 336 333 348 357 355 357 1 5 9 11 10 358 278 220 212 210 202 191 188 191 193 197 198 196 192 189 188 188 187 181 176 173 178 184 187 188 192 195 197
330 308 317 313 293 298 315 322 320 309 297 297 305 313 318 316 309 303 300 297 293 287 282 279 275 266 260 270 278 286 300 306 311 328 343 333 325 326 324 322 325 330 331 329 334 347 348 342 342 351 0 1 359 5 14 15 12 12 5 348 311 265 236 209 194 189 192 197 200 198 195 192 188 187 187 182 173 167 160 156 162 175 182 186 191 196